Probability
0 0 0 0 0 0 0 0 0 0 0 0 0 0 0 0 0 0 0 0 0 0 0 0 0 0 0 0 0 0 0 0 0 0 0 0 0 0
0 0 0 0 0 0 0 0 0 0 0 0 0 0 0 0 0 0 0 0 0 0 0 0 0 0 0 0 0 0 0 0 0 0 0 0 0 0
0 0 0 0 0 0 0 0 0 0 0 0 0 0 0 0 0 0 0 0 0 0 0 0 0 0 0 0 0 0 0 0 0 0 0 0 0 0
0 0 0 0 0 0 0 0 0 0 0 0 0 0 0 0 0 0 0 0 0 0 0 0 0 1 0 0 0 0 0 0 0 0 0 0 0 0
0 0 0 0 0 0 0 0 0 0 0 0 0 0 0 0 0 0 0 0 0 0 0 0 0 0 0 0 0 0 0 0 0 0 0 0 0 0
0 0 0 0 0 0 0 0 0 0 0 0 0 0 0 0 0 0 0 0 0 0 0 0 0 0 0 0 0 0 0 0 0 0 0 0 0 0
0 0 0 0 0 0 0 0 0 0 0 0 0 0 0 0 0 0 0 0 0 0 0 0 0 0 0 0 0 0 0 0 0 0 0 0 0 0
0 0 0 0 0 0 0 0 0 0 0 0 0 0 0 0 0 0 0 0 0 0 0 0 0 0 0 0 0 0 0 0 0 0 0 0 0 0
0 0 0 0 0 0 0 0 0 0 0 0 0 0 0 0 0 0 0 0 0 0 0 0 0 0 0 0 0 0 0 0 0 0 0 0 0 0
0 0 0 0 0 0 0 0 0 0 0 0 0 0 0 0 0 0 0 0 0 0 0 0 0 0 0 0 0 0 0 0 0 0 0 0 0 0
0 0 0 0 0 0 0 0 0 0 0 0 0 0 0 0 0 0 0 0 0 0 0 0 0 0 0 0 0 0 0 0 0 0 0 0 0 0
0 0 0 0 0 0 0 0 0 0 0 0 0 0 0 0 0 0 0 0 0 0 0 0 0 0 0 0 0 0 0 0 0 0 0 0 0 0
0 0 0 0 0 0 0 0 0 0 0 0 0 0 0 0 0 0 0 0 0 0 0 0 0 0 0 0 0 0 0 0 0 0 0 0 0 0
0 0 0 0 0 0 0 0 0 0 0 0 0 0 0 0 0 0 0 0 0 0 0 0 0 0 0 0 0 0 0 0 0 0 0 0 0 0
0 0 0 0 0 0 0 0 0 0 0 0 0 0 0 0 0 0 0 0 0 0 0 0 0 0 0 0 0 0 0 0 0 0 0 0 0 0
0 0 0 0 0 0 0 0 0 0 0 0 0 0 0 0 0 0 0 0 0 0 0 0 0 0 0 0 0 0 0 0 0 0 0 0 0 0
0 0 0 0 0 0 0 0 0 0 0 0 0 0 0 0 0 0 0 0 0 0 0 0 0 0 0 0 0 0 0 0 0 0 0 0 0 0
0 0 0 0 0 0 0 0 0 0 0 0 0 0 0 0 0 0 0 0 0 0 0 0 0 0 0 0 0 0 0 0 0 0 0 0 0 0
0 0 0 0 0 0 0 0 0 0 0 0 0 0 0 0 0 0 0 0 0 0 0 0 0 0 0 0 0 0 0 0 0 0 0 0 0 0
0 0 0 0 0 0 0 0 0 0 0 0 0 0 0 0 0 0 0 0 0 0 0 0 0 0 0 0 0 0 0 0 0 0 0 0 0 0
0 0 0 0 0 0 0 0 0 0 0 0 0 0 0 0 0 0 0 0 0 0 0 0 0 0 0 0 0 0 0 0 0 0 0 0 0 0
0 0 0 0 0 0 0 0 0 0 0 0 0 0 0 0 0 0 0 0 0 0 0 0 0 0 0 0 0 0 0 0 0 0 0 0 0 0
0 0 0 0 0 0 0 0 0 0 0 0 0 0 0 0 0 0 0 0 0 0 0 0 0 0 0 0 0 0 0 0 0 0 0 0 0 0
Wind_Speed
1 2 1 1 2 2 2 3 3 1 2 2 1 1 1 1 2 2 1 3 3 3 3 2 2 3 3 2 2 3 3 3 3 2 2 3 3 3
1 2 1 1 1 1 2 1 2 3 2 1 1 1 1 1 1 1 1 2 3 3 2 2 2 2 2 1 1 1 1 1 1 2 2 2 2 2
1 2 1 1 1 1 1 1 1 2 2 1 0 1 0 1 1 1 1 1 1 2 2 1 1 0 0 0 1 1 1 1 0 1 1 1 1 1
2 1 1 1 1 1 1 2 1 2 2 2 1 0 0 1 1 1 1 1 1 2 2 2 1 1 0 1 1 1 1 1 1 1 1 2 2 2
2 2 2 2 2 1 2 2 1 1 2 2 1 0 0 1 1 1 1 2 1 2 2 2 1 1 1 1 1 1 1 1 1 1 2 2 2 2
2 2 3 3 3 3 2 2 2 2 2 2 1 0 0 1 0 0 1 1 2 2 2 2 2 2 2 2 2 2 2 2 2 2 2 2 3 3
2 2 3 4 5 4 3 3 3 2 2 2 1 0 1 1 1 1 1 1 2 1 1 1 1 1 2 3 3 3 3 3 3 3 3 3 3 3
3 3 3 3 4 5 5 5 6 4 4 3 2 2 3 3 1 2 1 0 2 1 0 2 1 2 2 2 3 4 4 4 4 4 4 4 4 4
4 3 2 2 3 2 4 4 5 6 7 5 4 5 4 5 4 3 3 3 3 2 1 2 1 2 3 3 5 4 4 4 4 4 5 5 5 5
4 4 4 3 3 3 3 2 3 3 5 4 5 6 5 4 5 4 3 2 1 1 2 2 2 2 3 3 5 4 4 4 4 5 6 6 6 6
3 3 3 4 5 4 3 3 3 3 4 5 5 5 5 5 4 3 2 1 2 2 2 2 2 2 2 3 3 4 4 5 5 6 6 6 6 6
1 2 4 4 5 4 4 4 4 4 2 1 2 3 3 4 6 5 5 3 2 2 3 2 2 1 2 2 2 3 3 5 6 6 6 6 5 3
2 2 3 4 5 5 4 4 6 3 2 2 2 2 1 2 3 3 4 4 4 4 3 3 2 1 2 3 3 2 3 3 3 4 6 6 6 4
3 3 3 4 4 4 3 4 5 2 1 1 1 2 2 3 3 3 4 4 4 4 4 4 3 3 2 3 4 2 2 3 3 3 3 5 6 7
2 3 3 3 3 2 3 4 3 2 2 2 3 3 3 3 2 1 2 2 2 2 2 4 3 3 3 4 3 3 3 3 3 3 3 4 4 3
2 2 2 1 1 1 1 2 2 2 3 3 3 2 1 1 1 2 2 1 1 3 2 3 4 4 4 4 4 4 3 3 3 4 3 4 4 4
1 1 0 0 0 1 1 1 1 1 2 2 2 2 2 2 2 1 1 1 2 3 3 2 2 3 4 4 4 5 4 4 4 3 3 4 5 5
2 1 1 2 2 2 2 2 2 2 3 3 3 3 3 3 3 2 2 2 3 4 3 2 1 1 2 3 6 5 4 4 3 4 4 5 6 5
1 1 2 2 2 2 2 2 3 3 3 3 3 3 3 3 3 3 3 3 3 4 3 2 2 2 4 6 4 6 5 4 3 3 4 5 6 6
1 2 2 2 2 3 3 3 3 2 2 3 3 3 4 3 3 3 4 4 4 4 3 3 4 5 6 6 4 4 6 4 3 4 4 4 5 6
2 2 2 3 3 3 3 3 3 3 3 3 3 4 4 4 4 4 4 5 4 4 5 5 5 6 3 2 4 4 4 6 6 4 4 3 3 3
3 3 3 3 3 3 3 2 3 3 3 4 4 3 4 4 5 5 4 4 4 5 5 4 2 2 3 4 6 6 5 4 6 8 8 6 3 4
4 3 3 3 3 3 3 3 4 4 4 4 4 4 4 4 4 4 4 4 4 4 4 3 2 2 4 5 5 5 6 5 4 4 6 8 10 11
Wind_Direction
193 186 178 188 175 170 157 155 151 178 263 273 296 319 331 352 350 9 352 15 38 38 32 33 49 60 58 64 68 68 73 70 62 58 59 53 45 43
176 160 161 178 171 162 164 160 154 163 212 246 241 303 332 351 1 17 345 360 27 28 24 38 58 73 70 54 47 48 56 69 67 43 31 31 30 31
169 157 181 155 149 159 149 145 153 151 184 273 314 338 8 0 352 5 7 2 11 15 16 5 359 115 165 78 21 356 333 305 333 340 342 332 327 339
192 167 203 145 141 146 149 158 172 166 163 204 271 321 319 325 347 354 2 10 9 352 349 348 340 307 256 259 262 282 325 3 356 335 319 309 308 311
194 188 199 164 177 173 167 171 177 160 152 166 208 283 316 354 10 358 5 360 347 322 316 320 324 334 311 259 241 235 238 264 295 319 312 301 296 294
204 204 196 190 198 188 181 181 163 147 144 146 152 223 271 326 77 323 338 353 339 342 344 327 319 309 294 271 251 241 240 245 253 269 288 301 302 291
218 226 220 211 209 200 190 182 162 155 153 158 172 180 252 227 230 224 240 322 321 326 344 323 312 307 292 278 263 252 243 241 245 248 256 270 280 287
214 232 234 225 226 219 214 195 180 172 181 183 198 211 234 227 207 204 199 224 280 273 200 292 285 277 281 267 272 269 255 247 245 246 248 253 261 269
210 218 228 221 212 211 219 212 209 206 195 187 195 216 218 214 191 198 203 208 232 232 185 268 273 270 275 277 269 260 262 258 252 251 252 257 260 261
216 212 215 232 219 195 189 201 221 226 221 209 208 220 219 205 194 193 193 191 277 258 180 232 260 265 285 278 271 259 260 264 265 265 264 259 258 259
232 219 212 225 235 204 181 203 236 260 251 223 222 229 222 207 177 138 144 153 260 260 201 207 250 284 291 277 278 272 264 265 268 272 269 263 258 257
254 249 235 233 239 214 194 194 221 244 226 220 233 240 231 218 201 191 185 184 206 249 211 196 236 263 291 278 277 278 269 269 269 270 269 263 258 250
223 246 250 248 244 230 209 205 222 215 193 202 219 235 235 222 217 210 201 195 201 230 209 184 210 223 245 285 291 266 250 258 263 265 263 261 254 240
220 233 241 240 237 227 217 219 218 195 166 187 223 240 238 235 228 218 216 220 225 229 205 187 200 200 216 258 274 277 262 255 251 258 260 263 255 247
224 228 232 236 231 231 229 219 202 187 181 209 234 244 239 232 214 210 222 220 246 259 223 206 208 211 213 233 250 255 269 263 243 251 254 248 247 243
230 231 230 219 212 234 245 240 220 209 206 219 237 248 235 205 218 207 217 219 249 274 257 231 222 214 230 240 240 254 248 254 253 250 253 254 249 240
156 109 96 99 230 254 256 249 236 228 232 234 229 234 230 226 240 227 216 219 235 262 277 272 253 245 241 227 240 247 248 255 253 244 248 260 254 244
136 176 212 225 233 233 234 244 243 237 237 236 237 238 235 233 237 231 222 222 238 249 256 265 281 299 295 266 231 241 248 254 259 247 239 251 262 254
144 216 232 237 243 238 234 233 239 242 233 230 234 237 237 237 234 231 229 235 245 247 249 236 223 224 257 271 264 221 238 253 255 253 248 244 255 259
211 230 243 246 246 240 237 240 245 246 239 239 238 238 234 232 232 231 228 234 243 249 251 235 226 228 238 258 269 264 237 239 245 256 259 261 264 273
232 241 245 247 248 246 251 251 248 246 250 248 247 242 237 232 235 235 234 243 245 247 251 251 246 247 250 259 268 271 258 245 252 254 253 260 269 264
236 240 244 244 243 239 241 244 250 255 252 245 248 250 244 235 237 237 236 240 242 244 253 264 273 250 235 246 261 271 275 277 269 267 253 234 229 240
237 240 242 242 239 236 237 239 242 249 250 252 251 250 249 248 242 238 238 239 243 249 256 262 255 250 256 254 261 271 276 279 277 272 261 259 262 266